Dewpoint
72 73 73 75 75 75 74 74 74 74 74 73 73 73 73 73 73 73 72 72 72 72 72 73 73 72 72 72 72 72 71 71 71 71 71 71 71 71 70 69 69 69 69 68 68 68 68 68 68 69 69 70 69 70 69 70 69 67 67 67 67 66 67 67 67 68 69 69 69 69 68 68 68 67 68 68 67 66 65 66 67 64 65 64 65
71 73 74 75 75 75 75 74 74 74 74 74 74 74 74 73 73 73 73 71 72 72 72 73 73 73 72 72 72 71 71 71 71 71 71 71 70 70 70 70 70 69 68 68 67 67 67 66 67 68 69 69 69 69 69 69 68 68 67 67 67 67 66 66 66 68 70 70 70 69 68 68 67 67 68 67 67 67 66 66 64 63 62 63 64
72 73 74 75 75 75 74 74 74 74 74 73 73 74 74 73 73 73 73 73 72 73 73 72 72 72 72 72 71 71 71 71 71 71 71 70 70 70 70 70 69 68 68 67 67 67 67 67 67 67 67 68 68 68 68 68 68 67 67 68 68 68 67 66 66 67 69 69 68 68 69 69 68 66 66 65 66 65 64 64 63 62 59 65 65
72 73 74 74 75 74 74 74 74 74 74 73 74 74 74 74 73 73 73 73 73 73 73 73 72 72 72 71 71 71 71 71 70 70 70 70 70 70 70 70 69 68 68 68 67 67 67 67 68 68 68 68 68 68 68 68 67 67 68 68 68 68 68 68 68 68 69 69 69 68 68 67 67 67 67 67 66 65 65 64 63 62 62 62 61
73 74 74 74 74 74 74 74 74 74 73 73 74 74 74 74 73 73 73 73 73 73 73 73 73 72 72 71 71 71 70 70 70 70 70 70 70 70 70 70 70 70 69 69 68 67 67 66 67 66 66 67 67 67 68 68 67 67 68 68 68 68 68 68 68 68 68 68 68 67 66 65 65 65 65 64 65 65 66 66 65 66 66 66 65
73 74 74 73 74 74 74 73 73 74 73 73 74 74 74 73 73 73 73 73 73 73 73 73 72 72 72 72 71 71 71 70 70 70 70 70 70 70 70 70 70 70 70 70 70 69 67 66 66 67 68 68 68 68 68 68 68 68 68 68 68 68 68 68 68 68 68 68 67 66 65 65 65 63 64 65 66 66 65 64 64 63 63 64 65
73 74 73 73 74 74 74 73 74 74 74 74 74 74 74 73 73 73 73 73 73 73 72 72 72 72 72 72 72 72 71 71 71 71 71 71 70 70 69 69 70 70 69 70 70 69 69 68 67 67 67 68 68 68 68 68 68 68 68 68 68 68 68 68 68 67 67 66 64 64 65 65 66 66 67 67 67 65 64 63 63 64 64 64 64
73 73 73 73 74 74 74 73 73 74 74 74 74 74 74 73 73 73 73 73 73 72 72 72 72 72 72 72 72 72 71 71 71 71 70 71 70 69 69 69 69 69 69 69 69 69 67 67 67 67 68 68 68 69 68 68 68 68 68 68 68 68 68 67 67 67 66 64 65 65 65 65 65 64 67 67 65 64 63 62 62 63 63 64 64
73 73 73 74 74 74 73 73 73 74 74 74 74 74 74 74 73 73 73 73 72 72 71 71 71 71 71 71 71 71 71 71 71 71 71 71 71 70 70 69 69 69 70 70 69 69 69 68 67 67 68 69 69 69 68 68 68 68 67 68 67 66 67 67 67 67 65 65 65 65 65 65 66 67 67 66 65 65 65 64 63 65 64 64 63
73 73 74 74 73 73 73 73 73 74 74 74 74 74 74 73 73 73 73 73 72 71 71 71 71 71 71 71 71 71 71 71 71 71 71 70 70 70 70 70 70 70 70 69 69 69 68 68 68 68 69 68 68 68 68 68 68 68 67 67 66 66 66 67 66 67 64 64 64 65 67 67 65 65 65 65 64 64 62 61 63 63 62 62 64
72 73 73 73 73 73 73 73 73 74 74 74 74 74 73 74 73 73 73 73 72 71 71 70 71 71 70 71 71 71 71 71 71 71 71 70 70 70 70 70 70 70 70 69 69 69 69 69 68 67 67 68 68 68 68 68 68 67 66 65 66 68 67 67 66 63 64 64 64 65 68 67 65 66 65 64 63 65 64 63 62 64 66 63 62
72 72 73 73 74 73 73 73 73 73 74 74 74 73 74 74 73 73 73 73 72 71 71 71 70 70 70 70 71 71 71 71 71 71 71 71 71 70 70 70 70 70 69 69 69 69 69 69 69 70 69 69 69 69 68 68 68 67 66 66 67 67 67 67 63 63 63 64 66 65 64 64 65 65 65 64 64 63 63 63 65 66 65 65 65
72 72 71 73 72 72 72 72 73 73 73 74 73 73 73 73 73 73 72 72 72 71 71 71 71 71 71 71 71 71 71 70 70 70 70 70 70 70 70 69 69 69 69 69 69 69 68 69 70 69 69 69 69 69 68 68 68 67 67 67 67 66 67 66 63 63 64 64 65 64 63 65 66 66 65 65 64 64 64 63 64 65 66 66 66
71 71 70 71 71 72 71 71 72 73 73 73 73 73 73 72 73 72 72 72 72 71 71 71 71 71 71 71 71 71 71 71 70 70 70 70 70 70 70 69 69 69 70 69 69 69 69 69 68 68 68 68 68 68 68 68 67 67 68 67 66 66 66 66 65 64 65 64 66 63 64 67 65 66 64 64 64 64 64 63 63 64 64 65 65
70 71 71 71 71 71 72 71 72 72 72 72 72 72 72 72 72 72 72 72 72 72 72 72 72 72 71 71 71 71 71 70 70 70 70 70 70 70 70 69 69 70 69 69 69 69 68 67 68 68 68 68 68 68 68 68 68 68 68 68 67 66 66 64 63 63 63 64 65 65 63 65 67 65 64 64 64 64 64 63 63 63 63 63 64
71 71 72 71 71 70 71 72 72 71 69 70 71 72 72 72 72 72 72 72 72 72 72 72 72 72 72 72 72 71 71 71 70 70 70 70 70 70 70 69 69 69 69 69 69 69 68 68 68 68 68 68 68 68 68 68 68 68 69 69 67 66 65 65 63 63 64 64 65 65 64 65 67 66 64 63 64 64 63 64 64 64 64 63 63
71 71 71 70 70 71 71 71 71 71 70 71 71 72 72 70 71 72 72 72 72 72 72 72 72 72 72 72 72 72 71 71 70 70 70 70 70 70 70 70 69 69 69 69 69 68 68 68 68 68 68 68 68 68 68 69 68 68 69 69 68 66 66 65 63 63 64 65 65 64 64 65 67 65 64 64 63 64 64 63 63 64 64 64 64
70 71 71 71 70 70 70 70 71 70 69 70 73 72 71 68 69 71 72 71 72 72 72 72 72 72 72 72 72 72 72 71 71 70 70 70 70 70 70 70 69 69 69 69 69 69 68 68 68 68 68 68 68 69 69 69 68 68 68 69 68 67 66 66 63 64 64 65 64 66 66 67 68 65 64 64 63 63 63 64 65 64 64 64 65
70 70 71 71 71 71 71 70 71 70 69 71 71 70 69 68 69 71 72 71 71 72 72 72 72 72 72 72 72 72 71 71 71 71 70 70 70 70 70 69 69 69 69 69 69 69 68 68 68 68 68 68 68 68 68 68 69 68 68 68 68 67 67 66 64 63 65 66 65 65 64 67 68 65 64 64 64 63 64 64 63 63 65 65 65
69 70 70 69 69 70 69 70 71 70 71 71 70 68 69 69 70 72 72 72 72 72 72 72 72 72 72 72 72 71 69 70 70 70 70 70 70 70 70 70 70 70 69 69 69 69 68 68 68 68 68 68 68 68 68 68 69 69 68 68 68 67 67 63 63 63 65 64 66 64 65 67 67 64 64 64 64 62 62 62 63 65 65 64 65
69 69 68 69 70 69 69 69 69 70 70 68 68 68 69 70 71 72 72 72 72 72 71 72 72 71 70 69 68 66 66 66 67 68 70 70 70 70 70 70 70 70 70 70 69 69 68 68 68 69 68 68 68 68 68 68 68 68 68 68 68 67 64 63 63 65 64 65 67 63 65 67 66 64 64 64 63 62 62 63 64 64 64 65 65
67 67 68 69 69 70 69 67 68 68 68 67 67 68 69 69 69 70 70 70 71 70 69 69 71 67 69 67 67 67 66 65 67 70 68 69 69 70 70 70 70 70 70 70 69 69 69 69 68 68 68 68 67 63 64 67 68 68 67 67 66 64 64 64 63 64 65 65 65 65 66 66 65 64 63 64 63 63 62 62 62 63 65 65 65
65 66 66 68 68 68 68 68 69 67 66 66 68 68 69 68 68 68 69 70 70 70 68 68 65 65 66 67 68 67 66 66 66 67 67 68 68 69 70 70 71 70 70 70 69 69 69 69 69 68 69 67 63 62 61 61 62 67 67 63 63 64 64 63 63 64 64 64 64 65 66 66 65 64 63 63 63 62 62 62 61 65 66 65 65
64 65 66 67 68 67 67 68 68 67 67 66 68 68 68 69 69 68 68 68 69 69 68 67 65 65 65 66 66 67 66 65 69 70 69 66 66 68 69 68 69 70 70 70 69 69 69 69 68 69 66 64 62 61 61 61 62 61 62 63 63 63 63 63 63 63 63 65 63 65 66 66 65 64 63 63 62 62 62 62 61 65 64 65 65
64 65 66 67 66 67 68 67 64 66 66 66 67 68 68 69 69 68 67 68 68 68 68 66 66 65 65 66 66 67 66 66 66 66 65 65 64 65 66 66 66 67 70 68 68 68 68 67 67 66 64 63 62 61 62 61 62 62 62 63 64 63 63 63 63 63 63 65 65 65 66 66 65 64 64 62 62 63 62 61 60 60 64 65 64
64 64 66 66 66 66 67 66 66 65 65 65 67 69 68 69 69 68 68 68 68 68 67 67 65 65 65 66 67 65 66 66 66 66 64 64 64 65 64 64 65 66 68 67 67 66 66 66 66 65 64 63 62 62 62 63 61 62 62 62 63 64 63 63 63 63 63 64 65 65 67 66 67 64 64 63 63 62 62 62 61 60 61 63 62
64 64 66 65 64 65 66 67 65 65 65 65 67 70 69 69 70 69 68 67 67 67 67 66 65 65 66 66 65 64 65 66 66 66 65 64 64 65 64 64 65 66 67 67 67 67 67 66 65 65 64 64 63 63 62 61 61 61 62 61 63 63 63 63 63 63 63 64 65 66 67 67 67 66 64 63 63 62 62 61 62 61 61 60 61
64 63 64 64 63 63 65 68 66 65 65 66 67 70 69 69 70 69 68 68 67 66 66 66 65 65 66 66 66 65 65 66 66 65 64 64 64 65 64 64 65 65 66 67 68 67 66 65 64 63 64 64 64 63 62 61 61 61 62 62 62 63 63 63 63 63 64 64 65 66 67 68 68 68 64 63 63 63 62 61 62 61 61 60 61
62 62 63 64 65 62 63 67 67 65 65 65 67 69 69 69 69 69 67 69 66 66 65 65 65 65 65 66 66 64 64 65 65 65 63 63 64 64 64 64 64 65 65 66 67 67 67 65 64 64 63 63 62 62 62 60 61 61 60 61 62 63 63 63 63 63 64 64 64 66 67 68 68 68 66 64 63 63 63 62 62 62 61 60 60
62 63 63 63 64 67 66 68 67 66 65 66 67 68 68 68 68 68 67 68 66 65 64 64 65 65 65 66 66 65 65 64 64 63 63 63 64 64 64 63 63 64 64 65 65 66 67 65 64 65 64 62 62 63 61 60 60 61 60 62 63 63 63 63 64 64 64 65 65 66 67 68 68 67 67 65 64 64 63 63 62 62 62 62 61
63 63 63 63 63 62 65 67 66 66 65 66 67 67 67 66 66 65 67 67 66 66 65 64 64 64 65 67 66 65 64 64 64 64 63 63 63 63 63 63 63 63 64 64 65 66 66 65 64 64 63 62 62 62 61 61 61 61 61 61 62 63 63 64 65 65 65 65 65 65 66 67 67 67 67 67 66 64 64 64 63 62 61 61 62
62 62 62 63 62 62 63 63 65 65 65 65 67 67 66 65 65 64 64 64 65 64 63 63 65 64 65 65 65 64 65 64 64 64 64 63 63 63 63 62 62 63 64 64 65 65 65 65 65 64 62 62 62 62 62 62 62 61 61 61 62 62 63 63 63 64 64 65 64 64 65 66 67 67 67 67 66 67 65 65 65 63 62 61 61
61 62 62 62 61 62 63 63 62 63 64 65 66 66 65 65 64 63 64 64 63 63 63 63 64 64 64 64 63 64 65 64 63 65 66 64 63 63 64 62 62 62 64 65 65 64 64 63 63 62 62 63 63 62 62 62 62 62 62 62 62 61 62 62 63 63 64 64 64 64 64 65 66 66 67 67 67 67 67 67 65 65 63 62 62
61 61 61 61 61 62 62 62 62 61 64 66 65 65 64 64 63 63 64 63 62 62 63 62 64 64 64 63 63 63 64 64 64 65 66 64 63 64 64 63 63 63 64 64 64 63 63 62 62 63 63 62 61 61 62 62 62 62 62 62 62 62 62 62 62 62 63 63 64 64 64 64 65 65 65 66 67 67 68 67 67 66 65 64 62
60 60 60 61 61 61 62 61 62 62 64 65 65 64 64 64 63 62 63 62 62 63 63 64 64 63 64 63 63 63 64 64 64 64 64 63 63 63 64 64 64 63 63 63 63 62 63 62 62 61 61 62 61 61 60 60 61 61 61 61 62 62 62 62 62 61 61 63 64 63 63 63 64 64 65 65 66 66 67 67 67 67 67 65 64
60 60 61 62 61 61 62 61 62 63 64 65 64 63 64 64 63 65 63 63 62 62 62 64 65 65 65 64 64 64 63 64 64 64 64 63 63 62 63 63 63 62 62 62 62 62 62 61 61 61 61 61 60 60 60 60 61 61 62 61 61 61 61 61 61 61 60 60 60 61 63 64 63 64 66 65 65 65 66 67 67 67 67 67 66
60 60 61 61 61 61 62 62 62 63 63 63 63 63 62 62 62 63 63 62 61 61 61 62 63 63 63 63 64 65 63 63 63 64 63 62 62 61 62 62 63 62 62 61 61 61 61 61 60 61 61 60 60 60 60 60 61 61 62 61 61 61 60 62 62 61 61 61 60 60 61 61 63 65 65 65 65 64 64 65 66 66 66 67 67
60 60 60 61 60 61 62 61 61 62 62 63 63 61 61 62 62 63 64 62 61 61 61 61 61 61 61 62 63 63 63 62 62 63 62 62 62 62 61 62 62 62 61 61 60 60 60 60 60 60 60 60 60 59 60 60 61 61 61 60 61 61 61 61 62 63 62 62 62 61 61 61 61 62 63 63 64 64 64 64 65 65 66 66 67
60 60 60 60 61 62 62 62 61 61 62 62 60 60 61 61 61 61 61 60 60 60 61 61 61 61 60 61 62 62 62 62 63 64 63 62 62 62 62 62 61 61 61 61 60 60 60 59 59 59 60 59 60 60 61 61 61 61 60 60 62 62 62 62 61 61 61 61 62 63 61 60 60 61 62 62 62 63 63 64 64 64 65 65 66
59 59 59 60 61 60 60 60 60 60 59 58 60 61 61 61 60 59 59 58 58 60 59 60 60 61 62 61 61 62 62 62 63 65 64 62 62 62 61 62 62 60 60 60 59 59 59 59 59 60 60 61 61 61 61 60 60 61 61 62 62 62 62 62 62 61 60 61 61 61 61 61 61 61 63 63 63 63 64 64 64 64 64 65 65
59 59 59 60 60 59 59 58 58 57 57 58 60 61 60 58 57 57 57 55 58 57 57 57 58 60 60 62 62 62 62 63 63 65 64 63 62 62 61 61 61 61 60 60 60 60 60 60 60 60 60 60 60 62 61 61 60 59 60 60 60 62 62 61 61 61 61 60 60 59 59 59 59 59 61 63 63 63 64 64 64 65 64 64 64
59 59 59 60 59 58 57 57 57 56 56 58 59 60 58 59 58 56 56 54 55 56 56 55 56 56 57 59 61 61 61 62 64 65 64 62 61 61 61 61 61 60 60 60 60 61 60 60 60 60 61 61 61 62 61 60 57 57 57 56 57 59 61 60 60 60 61 60 59 59 59 59 59 60 61 62 63 64 64 65 64 65 64 64 64
59 59 59 59 58 57 56 56 56 54 54 55 57 57 55 56 56 54 54 53 53 54 54 54 55 53 54 56 58 59 60 61 63 64 63 62 61 61 61 61 61 61 61 61 60 60 60 59 59 59 58 59 60 61 60 59 57 57 58 56 53 52 54 57 58 58 58 58 58 58 59 59 59 59 60 61 62 63 65 64 64 63 64 63 63
59 58 58 58 58 57 56 55 55 54 53 55 57 56 56 54 54 54 54 53 53 55 53 53 52 52 53 54 55 56 57 59 61 63 62 62 62 61 60 61 61 61 61 60 60 60 60 60 60 59 59 58 57 59 61 59 58 57 54 55 54 53 49 53 55 57 58 58 58 57 59 59 58 58 59 59 60 62 63 64 64 64 63 63 64
58 58 58 58 57 56 55 55 55 54 55 57 56 55 54 53 53 52 52 52 52 52 51 51 53 55 54 53 53 55 55 56 58 61 62 60 61 61 61 60 60 60 60 59 60 60 60 61 60 59 59 58 57 58 60 60 59 60 57 55 53 51 51 55 53 54 56 57 57 58 58 57 58 58 58 58 58 61 62 62 63 64 64 64 65
58 58 58 58 57 56 55 55 55 55 54 55 55 54 54 52 51 50 50 49 49 49 49 49 50 50 51 51 51 51 52 53 55 58 61 61 60 60 60 60 60 59 59 59 59 59 59 59 59 59 58 58 58 58 57 59 59 58 58 57 55 53 53 55 53 49 54 56 56 57 51 51 57 56 55 52 53 55 58 60 62 62 64 65 65
58 58 58 57 57 56 55 55 55 54 54 55 55 54 53 52 52 51 50 50 49 48 49 50 51 51 51 50 49 50 51 52 54 56 58 58 57 58 59 59 59 59 60 59 58 58 58 59 59 58 58 58 58 57 56 58 59 58 58 58 59 57 56 55 52 50 50 53 54 54 51 48 51 50 50 49 52 55 57 59 60 60 62 64 65
58 58 58 57 56 55 54 54 55 55 54 55 54 53 52 52 51 50 51 50 50 50 50 50 52 52 49 49 49 49 50 52 54 54 55 57 56 56 57 58 58 58 59 57 57 57 58 59 59 58 58 58 58 58 58 59 58 57 58 58 58 57 57 56 54 53 51 51 52 53 53 50 50 50 50 49 49 50 51 52 49 49 54 56 59
57 58 57 57 57 56 56 54 55 54 53 54 54 53 53 51 51 51 50 50 51 51 53 53 51 50 48 48 48 49 50 51 52 53 53 55 56 54 55 55 56 56 56 54 54 55 55 56 57 58 57 57 57 58 59 58 57 57 57 55 52 50 50 52 54 54 53 48 48 47 46 48 49 49 49 49 47 47 47 47 47 45 48 49 54
56 57 57 56 55 55 54 53 53 53 53 53 53 52 52 52 51 50 50 52 52 51 51 50 49 48 47 47 48 49 49 50 50 51 52 52 53 53 52 52 53 54 54 51 52 52 53 53 53 54 54 54 55 57 57 56 57 56 56 54 49 47 46 45 45 46 45 46 42 42 46 44 44 47 50 49 46 45 43 45 45 42 45 47 47
55 57 56 54 54 54 54 53 53 52 52 52 52 52 52 51 51 50 51 51 51 50 50 49 48 47 46 47 47 47 48 49 50 50 51 51 52 53 51 51 53 55 52 50 50 50 50 50 50 50 51 52 52 52 51 51 49 48 46 47 47 47 46 44 43 44 44 42 42 41 43 44 43 44 46 49 48 43 40 42 43 44 45 46 46